AAL2143 KPHX-KSBP

Flight info

Callsign AAL2143
Flight time 1h 9m
Altitude 34000
Route KEENS3 HRRBR CURIV J212 DECAS PMD FIM CNDOR CADAB
Aircraft B738/M-SDE2E3FGHIRWXY/LB1

Departure

Time 2026-04-20 02:42
Airport Phoenix Sky Harbor International Airport (KPHX)

Arrival

Time 2026-04-20 03:52
Airport San Luis County Regional Airport (KSBP)
Time Latitude Longitude Altitude Speed Heading
2026-04-20 02:27 33.43758 -111.99878 1130 ft 0 kts 270°
2026-04-20 02:36 33.43758 -111.99864 1135 ft 4 kts 279°
2026-04-20 02:37 33.43748 -111.99837 1133 ft 4 kts 326°
2026-04-20 02:37 33.43732 -111.99829 1134 ft 6 kts 358°
2026-04-20 02:39 33.43815 -111.99829 1130 ft 19 kts
2026-04-20 02:39 33.43944 -111.99843 1134 ft 18 kts 335°
2026-04-20 02:39 33.43974 -111.99981 1133 ft 18 kts 268°
2026-04-20 02:39 33.43974 -112.00145 1133 ft 22 kts 272°
2026-04-20 02:40 33.43974 -112.00330 1131 ft 22 kts 270°
2026-04-20 02:40 33.43974 -112.00512 1132 ft 22 kts 270°
2026-04-20 02:40 33.43975 -112.00688 1133 ft 21 kts 270°
2026-04-20 02:40 33.43974 -112.00860 1132 ft 20 kts 270°
2026-04-20 02:41 33.43974 -112.01024 1131 ft 20 kts 270°
2026-04-20 02:41 33.44004 -112.01096 1134 ft 9 kts 11°
2026-04-20 02:41 33.44069 -112.01085 1135 ft 8 kts 21°
2026-04-20 02:41 33.44087 -112.00939 1130 ft 47 kts 89°
2026-04-20 02:42 33.44082 -112.00221 1131 ft 120 kts 90°
2026-04-20 02:42 33.44086 -111.99027 1301 ft 163 kts 91°
2026-04-20 02:42 33.44085 -111.97605 1983 ft 174 kts 91°
2026-04-20 02:42 33.44102 -111.96114 2673 ft 183 kts 91°
2026-04-20 02:43 33.44165 -111.94511 3172 ft 207 kts 94°
2026-04-20 02:43 33.43942 -111.92744 3431 ft 227 kts 106°
2026-04-20 02:43 33.43209 -111.90994 3630 ft 250 kts 139°
2026-04-20 02:43 33.41622 -111.90126 4195 ft 259 kts 176°
2026-04-20 02:44 33.39857 -111.90505 5075 ft 263 kts 203°
2026-04-20 02:44 33.38376 -111.91811 5872 ft 271 kts 228°
2026-04-20 02:44 33.37477 -111.93805 6747 ft 278 kts 252°
2026-04-20 02:44 33.37128 -111.96104 7547 ft 283 kts 258°
2026-04-20 02:45 33.36809 -111.98450 8363 ft 287 kts 258°
2026-04-20 02:45 33.36470 -112.00817 9193 ft 291 kts 261°
2026-04-20 02:45 33.36568 -112.03257 10009 ft 296 kts 278°
2026-04-20 02:45 33.36952 -112.05745 10453 ft 316 kts 279°
2026-04-20 02:46 33.37374 -112.08437 10646 ft 341 kts 279°
2026-04-20 02:46 33.37818 -112.11290 11053 ft 356 kts 279°
2026-04-20 02:46 33.38269 -112.14222 11777 ft 360 kts 279°
2026-04-20 02:46 33.38719 -112.17185 12516 ft 364 kts 279°
2026-04-20 02:47 33.39169 -112.20183 13251 ft 368 kts 279°
2026-04-20 02:47 33.39620 -112.23213 13998 ft 371 kts 278°
2026-04-20 02:47 33.40070 -112.26257 14712 ft 373 kts 278°
2026-04-20 02:47 33.40523 -112.29330 15400 ft 376 kts 278°
2026-04-20 02:48 33.40977 -112.32419 16132 ft 378 kts 278°
2026-04-20 02:48 33.41433 -112.35527 16822 ft 381 kts 278°
2026-04-20 02:48 33.41894 -112.38676 17398 ft 387 kts 278°
2026-04-20 02:48 33.42362 -112.41878 18029 ft 391 kts 277°
2026-04-20 02:49 33.42831 -112.45092 18634 ft 394 kts 277°
2026-04-20 02:49 33.43303 -112.48322 19335 ft 393 kts 277°
2026-04-20 02:49 33.43774 -112.51552 19953 ft 396 kts 278°
2026-04-20 02:49 33.44248 -112.54815 20490 ft 400 kts 278°
2026-04-20 02:50 33.44724 -112.58110 21033 ft 403 kts 278°
2026-04-20 02:50 33.45111 -112.61438 21577 ft 405 kts 272°
2026-04-20 02:50 33.45186 -112.64775 22108 ft 407 kts 268°
2026-04-20 02:50 33.45176 -112.68225 22644 ft 410 kts 268°
2026-04-20 02:51 33.45176 -112.71607 23143 ft 414 kts 269°
2026-04-20 02:51 33.45204 -112.75064 23598 ft 418 kts 269°
2026-04-20 02:51 33.45250 -112.78556 24043 ft 420 kts 270°
2026-04-20 02:51 33.45556 -112.82041 24478 ft 423 kts 279°
2026-04-20 02:52 33.46187 -112.85495 24925 ft 425 kts 281°
2026-04-20 02:52 33.46861 -112.88953 25326 ft 428 kts 282°
2026-04-20 02:52 33.47544 -112.92432 25712 ft 431 kts 281°
2026-04-20 02:52 33.48224 -112.95938 26097 ft 433 kts 281°
2026-04-20 02:53 33.48894 -112.99467 26474 ft 436 kts 281°
2026-04-20 02:53 33.49558 -113.03012 26861 ft 438 kts 281°
2026-04-20 02:53 33.50225 -113.06582 27234 ft 440 kts 281°
2026-04-20 02:53 33.50894 -113.10168 27593 ft 442 kts 281°
2026-04-20 02:54 33.51569 -113.13781 27936 ft 445 kts 280°
2026-04-20 02:54 33.52247 -113.17410 28294 ft 448 kts 280°
2026-04-20 02:54 33.52927 -113.21050 28754 ft 447 kts 280°
2026-04-20 02:54 33.53604 -113.24675 29309 ft 444 kts 280°
2026-04-20 02:55 33.54277 -113.28282 29847 ft 442 kts 280°
2026-04-20 02:55 33.54946 -113.31879 30257 ft 441 kts 280°
2026-04-20 02:55 33.55613 -113.35467 30644 ft 441 kts 279°
2026-04-20 02:55 33.56277 -113.39050 31056 ft 439 kts 279°
2026-04-20 02:56 33.56939 -113.42620 31470 ft 438 kts 279°
2026-04-20 02:56 33.57586 -113.46122 31975 ft 434 kts 279°
2026-04-20 02:56 33.58244 -113.49684 32420 ft 432 kts 279°
2026-04-20 02:56 33.58884 -113.53160 32715 ft 433 kts 279°
2026-04-20 02:57 33.59532 -113.56691 32991 ft 434 kts 279°
2026-04-20 02:57 33.60180 -113.60222 33346 ft 433 kts 279°
2026-04-20 02:57 33.60826 -113.63746 33744 ft 432 kts 279°
2026-04-20 02:58 33.62125 -113.70867 33841 ft 442 kts 279°
2026-04-20 02:58 33.63451 -113.78165 33849 ft 453 kts 279°
2026-04-20 02:59 33.64805 -113.85634 33835 ft 462 kts 279°
2026-04-20 02:59 33.66181 -113.93242 33824 ft 470 kts 279°
2026-04-20 03:00 33.67565 -114.00921 33816 ft 471 kts 279°
2026-04-20 03:00 33.68947 -114.08612 33833 ft 471 kts 279°
2026-04-20 03:01 33.70323 -114.16304 33818 ft 471 kts 279°
2026-04-20 03:01 33.71691 -114.23985 33820 ft 470 kts 279°
2026-04-20 03:02 33.73052 -114.31652 33820 ft 469 kts 279°
2026-04-20 03:02 33.74405 -114.39312 33830 ft 469 kts 279°
2026-04-20 03:03 33.75752 -114.46963 33817 ft 468 kts 279°
2026-04-20 03:03 33.77092 -114.54604 33818 ft 467 kts 279°
2026-04-20 03:04 33.78416 -114.62184 33818 ft 466 kts 279°
2026-04-20 03:04 33.79754 -114.69868 33818 ft 466 kts 279°
2026-04-20 03:05 33.81068 -114.77443 33826 ft 466 kts 279°
2026-04-20 03:05 33.82385 -114.85067 33832 ft 466 kts 279°
2026-04-20 03:06 33.83698 -114.92702 33832 ft 466 kts 279°
2026-04-20 03:06 33.85005 -115.00328 33829 ft 466 kts 279°
2026-04-20 03:07 33.86304 -115.07938 33832 ft 463 kts 279°
2026-04-20 03:07 33.87591 -115.15507 33833 ft 461 kts 279°
2026-04-20 03:08 33.88869 -115.23049 33840 ft 459 kts 279°
2026-04-20 03:08 33.90138 -115.30569 33846 ft 458 kts 279°
2026-04-20 03:09 33.91400 -115.38085 33847 ft 458 kts 279°
2026-04-20 03:09 33.92660 -115.45607 33853 ft 459 kts 279°
2026-04-20 03:10 33.93702 -115.51854 33865 ft 459 kts 279°
2026-04-20 03:10 33.95157 -115.60613 33860 ft 459 kts 279°
2026-04-20 03:11 33.96404 -115.68154 33882 ft 459 kts 280°
2026-04-20 03:11 33.97647 -115.75695 33872 ft 459 kts 280°
2026-04-20 03:12 33.98684 -115.82010 33879 ft 458 kts 280°
2026-04-20 03:12 33.99916 -115.89542 33888 ft 458 kts 280°
2026-04-20 03:13 34.01135 -115.97016 33902 ft 457 kts 281°
2026-04-20 03:13 34.02355 -116.04527 33908 ft 456 kts 280°
2026-04-20 03:14 34.03565 -116.12026 33920 ft 455 kts 280°
2026-04-20 03:14 34.04770 -116.19516 33921 ft 455 kts 280°
2026-04-20 03:15 34.05969 -116.27000 33870 ft 454 kts 281°
2026-04-20 03:15 34.07161 -116.34464 33870 ft 453 kts 281°
2026-04-20 03:16 34.08345 -116.41909 33868 ft 452 kts 281°
2026-04-20 03:16 34.09525 -116.49351 33874 ft 451 kts 281°
2026-04-20 03:17 34.10699 -116.56788 33870 ft 451 kts 281°
2026-04-20 03:17 34.11865 -116.64213 33880 ft 450 kts 281°
2026-04-20 03:18 34.13024 -116.71619 33903 ft 449 kts 281°
2026-04-20 03:18 34.14177 -116.79018 33931 ft 448 kts 281°
2026-04-20 03:19 34.15325 -116.86418 33927 ft 448 kts 281°
2026-04-20 03:19 34.16466 -116.93806 33943 ft 448 kts 281°
2026-04-20 03:20 34.17602 -117.01191 33947 ft 447 kts 281°
2026-04-20 03:20 34.18730 -117.08555 33943 ft 445 kts 281°
2026-04-20 03:21 34.19842 -117.15850 33940 ft 445 kts 280°
2026-04-20 03:21 34.20959 -117.23206 33981 ft 444 kts 281°
2026-04-20 03:22 34.22066 -117.30524 33975 ft 442 kts 281°
2026-04-20 03:22 34.23167 -117.37831 33969 ft 441 kts 281°
2026-04-20 03:23 34.24262 -117.45124 33948 ft 441 kts 280°
2026-04-20 03:23 34.25352 -117.52415 33965 ft 441 kts 281°
2026-04-20 03:24 34.26435 -117.59696 33960 ft 439 kts 281°
2026-04-20 03:24 34.27512 -117.66967 33975 ft 439 kts 281°
2026-04-20 03:25 34.28588 -117.74258 33965 ft 441 kts 281°
2026-04-20 03:25 34.29661 -117.81561 33963 ft 441 kts 281°
2026-04-20 03:26 34.30728 -117.88856 33965 ft 441 kts 280°
2026-04-20 03:26 34.31792 -117.96159 33967 ft 441 kts 280°
2026-04-20 03:27 34.32851 -118.03462 33966 ft 441 kts 280°
2026-04-20 03:27 34.33906 -118.10769 33950 ft 441 kts 281°
2026-04-20 03:28 34.34955 -118.18070 33962 ft 440 kts 280°
2026-04-20 03:28 34.36526 -118.29054 33483 ft 443 kts 280°
2026-04-20 03:29 34.37049 -118.32734 33036 ft 444 kts 280°
2026-04-20 03:29 34.37572 -118.36417 32594 ft 445 kts 280°
2026-04-20 03:29 34.38096 -118.40112 32152 ft 446 kts 280°
2026-04-20 03:29 34.38620 -118.43817 31699 ft 447 kts 280°
2026-04-20 03:30 34.39148 -118.47531 31263 ft 448 kts 280°
2026-04-20 03:30 34.39676 -118.51253 30827 ft 449 kts 280°
2026-04-20 03:30 34.40203 -118.54991 30372 ft 451 kts 280°
2026-04-20 03:30 34.40729 -118.58738 29915 ft 452 kts 280°
2026-04-20 03:31 34.41255 -118.62497 29399 ft 454 kts 279°
2026-04-20 03:31 34.41774 -118.66223 28890 ft 456 kts 279°
2026-04-20 03:31 34.42308 -118.70060 28403 ft 457 kts 279°
2026-04-20 03:31 34.42828 -118.73815 27922 ft 458 kts 279°
2026-04-20 03:32 34.43363 -118.77679 27432 ft 460 kts 279°
2026-04-20 03:32 34.43886 -118.81463 26959 ft 462 kts 279°
2026-04-20 03:32 34.44416 -118.85308 26484 ft 465 kts 279°
2026-04-20 03:32 34.44948 -118.89181 25999 ft 467 kts 279°
2026-04-20 03:33 34.45481 -118.93069 25523 ft 469 kts 279°
2026-04-20 03:33 34.46016 -118.96978 25014 ft 471 kts 278°
2026-04-20 03:33 34.46550 -119.00891 24525 ft 467 kts 278°
2026-04-20 03:33 34.47075 -119.04742 24016 ft 461 kts 278°
2026-04-20 03:34 34.47595 -119.08567 23519 ft 459 kts 278°
2026-04-20 03:34 34.48110 -119.12371 22968 ft 456 kts 278°
2026-04-20 03:34 34.48622 -119.16156 22454 ft 453 kts 278°
2026-04-20 03:34 34.49126 -119.19894 21966 ft 444 kts 277°
2026-04-20 03:35 34.49620 -119.23537 21493 ft 433 kts 278°
2026-04-20 03:35 34.50363 -119.27035 21030 ft 425 kts 287°
2026-04-20 03:35 34.51516 -119.30281 20834 ft 412 kts 295°
2026-04-20 03:35 34.52989 -119.33203 20596 ft 402 kts 301°
2026-04-20 03:36 34.54530 -119.36002 20048 ft 399 kts 301°
2026-04-20 03:36 34.56075 -119.38808 19381 ft 400 kts 301°
2026-04-20 03:36 34.57612 -119.41612 18793 ft 399 kts 301°
2026-04-20 03:36 34.59142 -119.44416 18256 ft 397 kts 301°
2026-04-20 03:37 34.60655 -119.47202 17662 ft 394 kts 301°
2026-04-20 03:37 34.62155 -119.49969 17095 ft 391 kts 300°
2026-04-20 03:37 34.63643 -119.52721 16560 ft 388 kts 300°
2026-04-20 03:37 34.65116 -119.55451 16121 ft 384 kts 300°
2026-04-20 03:38 34.66573 -119.58154 15700 ft 381 kts 300°
2026-04-20 03:38 34.68020 -119.60842 15321 ft 379 kts 300°
2026-04-20 03:38 34.69459 -119.63518 14916 ft 377 kts 300°
2026-04-20 03:38 34.70887 -119.66174 14538 ft 374 kts 300°
2026-04-20 03:39 34.72302 -119.68807 14130 ft 370 kts 300°
2026-04-20 03:39 34.73696 -119.71402 13766 ft 364 kts 300°
2026-04-20 03:39 34.75074 -119.73969 13332 ft 360 kts 300°
2026-04-20 03:39 34.76431 -119.76500 12944 ft 355 kts 300°
2026-04-20 03:40 34.77771 -119.79001 12572 ft 351 kts 300°
2026-04-20 03:40 34.79097 -119.81476 12200 ft 347 kts 300°
2026-04-20 03:40 34.80390 -119.83895 11843 ft 344 kts 300°
2026-04-20 03:40 34.81690 -119.86325 11481 ft 340 kts 300°
2026-04-20 03:41 34.82971 -119.88721 11125 ft 336 kts 300°
2026-04-20 03:41 34.84237 -119.91096 10781 ft 333 kts 300°
2026-04-20 03:41 34.85493 -119.93451 10434 ft 331 kts 300°
2026-04-20 03:41 34.86728 -119.95766 10130 ft 319 kts 300°
2026-04-20 03:42 34.87899 -119.97960 9972 ft 308 kts 300°
2026-04-20 03:42 34.89071 -120.00159 9657 ft 306 kts 300°
2026-04-20 03:42 34.90199 -120.02340 9284 ft 302 kts 298°
2026-04-20 03:42 34.91305 -120.04486 9028 ft 299 kts 300°
2026-04-20 03:43 34.92441 -120.06595 8716 ft 298 kts 301°
2026-04-20 03:43 34.93578 -120.08703 8404 ft 297 kts 300°
2026-04-20 03:43 34.94703 -120.10801 8082 ft 296 kts 301°
2026-04-20 03:43 34.95823 -120.12894 7787 ft 294 kts 300°
2026-04-20 03:44 34.96934 -120.14981 7481 ft 293 kts 300°
2026-04-20 03:44 34.98041 -120.17065 7176 ft 292 kts 300°
2026-04-20 03:44 34.99140 -120.19139 6883 ft 290 kts 300°
2026-04-20 03:44 35.00231 -120.21198 6584 ft 287 kts 300°
2026-04-20 03:45 35.01302 -120.23220 6259 ft 280 kts 300°
2026-04-20 03:45 35.02341 -120.25180 5938 ft 270 kts 300°
2026-04-20 03:45 35.03327 -120.27041 5650 ft 260 kts 300°
2026-04-20 03:45 35.04291 -120.28864 5365 ft 251 kts 300°
2026-04-20 03:46 35.05222 -120.30629 5084 ft 245 kts 300°
2026-04-20 03:46 35.06149 -120.32388 4824 ft 242 kts 300°
2026-04-20 03:46 35.07047 -120.34094 4624 ft 241 kts 299°
2026-04-20 03:46 35.07948 -120.35803 4494 ft 237 kts 299°
2026-04-20 03:47 35.08835 -120.37489 4385 ft 235 kts 299°
2026-04-20 03:47 35.09717 -120.39167 4299 ft 237 kts 299°
2026-04-20 03:47 35.10610 -120.40867 4221 ft 237 kts 300°
2026-04-20 03:47 35.11498 -120.42553 4078 ft 234 kts 299°
2026-04-20 03:48 35.12386 -120.44213 3910 ft 235 kts 301°
2026-04-20 03:48 35.13315 -120.45842 3665 ft 230 kts 302°
2026-04-20 03:48 35.14215 -120.47413 3443 ft 221 kts 302°
2026-04-20 03:48 35.15078 -120.48924 3224 ft 212 kts 301°
2026-04-20 03:49 35.15892 -120.50351 2978 ft 197 kts 302°
2026-04-20 03:49 35.16657 -120.51693 2780 ft 189 kts 302°
2026-04-20 03:49 35.17407 -120.53004 2518 ft 187 kts 302°
2026-04-20 03:49 35.18149 -120.54304 2249 ft 186 kts 303°
2026-04-20 03:50 35.18885 -120.55588 1965 ft 182 kts 304°
2026-04-20 03:50 35.19590 -120.56824 1692 ft 171 kts 303°
2026-04-20 03:50 35.20239 -120.57961 1454 ft 157 kts 304°
2026-04-20 03:50 35.20842 -120.59020 1213 ft 148 kts 304°
2026-04-20 03:51 35.21445 -120.60038 948 ft 147 kts 304°
2026-04-20 03:51 35.22032 -120.61075 776 ft 149 kts 305°
2026-04-20 03:51 35.22620 -120.62128 564 ft 151 kts 303°
2026-04-20 03:51 35.23214 -120.63191 301 ft 150 kts 305°
2026-04-20 03:52 35.23767 -120.64161 196 ft 106 kts 304°
2026-04-20 03:52 35.23905 -120.64396 198 ft 14 kts 311°
2026-04-20 03:52 35.23969 -120.64413 194 ft 8 kts 27°
2026-04-20 03:52 35.23986 -120.64359 187 ft 7 kts 108°
2026-04-20 03:53 35.23961 -120.64310 192 ft 7 kts 123°
2026-04-20 03:53 35.23896 -120.64215 191 ft 17 kts 130°
2026-04-20 03:53 35.23834 -120.64109 194 ft 14 kts 123°
2026-04-20 03:53 35.23786 -120.64018 197 ft 12 kts 117°
2026-04-20 03:54 35.23751 -120.63935 206 ft 9 kts 105°
2026-04-20 03:54 35.23761 -120.63896 199 ft 3 kts 51°
2026-04-20 03:54 35.23780 -120.63855 203 ft 0 kts 51°
2026-04-20 03:54 35.23781 -120.63855 203 ft 0 kts 51°